User: anonymous   Login
Location: Unspecified
(0.0000°N, 0.0000°E)
Time: 04:35:42
(UTC+00:00)
Language:

STARLINK-32942 - Orbit

View from above orbital plane
View from above orbital plane
View from above satellite
View from above satellite

Ground track
Ground track

The orbit is defined by the following mean orbital elements,

1 63120U          26145.49225192 +.00000000 +00000-0 +81454-3 0 00002
2 63120  43.0010 298.9619 0001583 264.2907  95.7764 15.27596490    09
Epoch (UTC): 25 May 2026 11:48:50
Eccentricity: 0.0001583
inclination: 43.0010°
perigee height: 482 km
apogee height: 484 km
right ascension of ascending node: 298.9619°
argument of perigee: 264.2907°
revolutions per day: 15.27596490
mean anomaly at epoch: 95.7764°

The dashed part of the orbit path shows where the satellite is in the earth's shadow,  

DLR